Location: Asheville, NC
(35.6000°N, 82.5500°W)
Time: 14:28:41
(UTC-04:00)

ISS - Pass Details

Date: 15 March 2018
Orbit: 403 x 408 km, 51.6° (Epoch: 21 September)

Event Time Altitude Azimuth Distance (km) Brightness Sun altitude
Rises 07:09:15 0° 319° (NW) 2,351 -0.3 -7.3°
Reaches altitude 10° 07:11:30 10° 330° (NNW) 1,482 -1.2 -6.8°
Maximum altitude 07:14:32 32° 35° (NE) 731 -2.1 -6.2°
Drops below altitude 10° 07:17:31 10° 101° (E) 1,465 0.7 -5.6°
Sets 07:19:44 0° 112° (ESE) 2,318 1.5 -5.1°
